H1 CPF 2 NER 2022 6 30 9 181 01 glonass139 H2 1808601 9139 43687 2022 6 30 0 0 0 2022 7 3 23 45 0 900 1 1 0 0 0 1 H9 10 0 59760 0.00000 0 12531966.937 -17414092.739 -13779044.897 10 0 59760 900.00000 0 13671673.556 -18452308.480 -11086327.102 10 0 59760 1800.00000 0 14477578.309 -19338574.207 -8178073.863 10 0 59760 2700.00000 0 14961229.652 -20016447.612 -5110874.518 10 0 59760 3600.00000 0 15146133.196 -20434966.092 -1944373.868 10 0 59760 4500.00000 0 15066520.008 -20550904.213 1259892.927 10 0 59760 5400.00000 0 14765675.881 -20330720.954 4439699.562 10 0 59760 6300.00000 0 14293903.793 -19752114.743 7533338.144 10 0 59760 7200.00000 0 13706206.874 -18805121.064 10480815.168 10 0 59760 8100.00000 0 13059790.678 -17492706.776 13225010.709 10 0 59760 9000.00000 0 12411490.618 -15830836.454 15712778.640 10 0 59760 9900.00000 0 11815233.106 -13848008.222 17895967.042 10 0 59760 10800.00000 0 11319637.037 -11584278.465 19732340.002 10 0 59760 11700.00000 0 10965855.925 -9089815.832 21186384.022 10 0 59760 12600.00000 0 10785750.631 -6423044.273 22229984.623 10 0 59760 13500.00000 0 10800468.604 -3648451.341 22842961.278 10 0 59760 14400.00000 0 11019488.590 -834151.537 23013451.377 10 0 59760 15300.00000 0 11440170.445 1950695.687 22738136.569 10 0 59760 16200.00000 0 12047828.852 4638507.937 22022307.553 10 0 59760 17100.00000 0 12816328.216 7165835.008 20879766.051 10 0 59760 18000.00000 0 13709174.499 9475742.756 19332565.446 10 0 59760 18900.00000 0 14681059.264 11519928.368 17410594.318 10 0 59760 19800.00000 0 15679792.377 13260480.380 15151009.802 10 0 59760 20700.00000 0 16648543.446 14671211.019 12597530.504 10 0 59760 21600.00000 0 17528298.937 15738505.961 9799601.320 10 0 59760 22500.00000 0 18260432.408 16461656.253 6811445.121 10 0 59760 23400.00000 0 18789280.065 16852658.476 3691018.740 10 0 59760 24300.00000 0 19064613.005 16935491.455 498892.804 10 0 59760 25200.00000 0 19043901.315 16744899.749 -2702923.151 10 0 59760 26100.00000 0 18694273.435 16324735.045 -5852187.374 10 0 59760 27000.00000 0 17994086.675 15725925.426 -8887640.526 10 0 59760 27900.00000 0 16934040.877 15004158.517 -11750204.048 10 0 59760 28800.00000 0 15517786.414 14217376.802 -14384138.003 10 0 59760 29700.00000 0 13761999.068 13423191.633 -16738135.003 10 0 59760 30600.00000 0 11695916.780 12676326.028 -18766328.101 10 0 59760 31500.00000 0 9360356.328 12026195.192 -20429192.148 10 0 59760 32400.00000 0 6806249.823 11514727.861 -21694320.514 10 0 59760 33300.00000 0 4092761.394 11174521.269 -22537061.614 10 0 59760 34200.00000 0 1285062.179 11027408.256 -22941002.530 10 0 59760 35100.00000 0 -1548143.847 11083497.462 -22898290.246 10 0 59760 36000.00000 0 -4337240.301 11340727.324 -22409784.225 10 0 59760 36900.00000 0 -7014355.851 11784952.733 -21485037.474 10 0 59760 37800.00000 0 -9515948.195 12390560.489 -20142106.622 10 0 59760 38700.00000 0 -11785207.138 13121587.259 -18407194.905 10 0 59760 39600.00000 0 -13774176.951 13933292.322 -16314135.326 10 0 59760 40500.00000 0 -15445510.210 14774118.131 -13903724.369 10 0 59760 41400.00000 0 -16773780.892 15587955.214 -11222919.633 10 0 59760 42300.00000 0 -17746303.059 16316615.047 -8323917.599 10 0 59760 43200.00000 0 -18363422.488 16902405.796 -5263130.043 10 0 59760 44100.00000 0 -18638270.888 17290701.501 -2100079.683 10 0 59760 45000.00000 0 -18595994.895 17432395.751 1103762.698 10 0 59760 45900.00000 0 -18272494.343 17286135.932 4286176.396 10 0 59760 46800.00000 0 -17712724.689 16820243.650 7385400.428 10 0 59760 47700.00000 0 -16968636.705 16014240.394 10341330.735 10 0 59760 48600.00000 0 -16096841.463 14859914.349 13096681.696 10 0 59760 49500.00000 0 -15156099.693 13361883.619 15598089.696 10 0 59760 50400.00000 0 -14204741.550 11537632.385 17797137.858 10 0 59760 51300.00000 0 -13298125.140 9417018.390 19651282.991 10 0 59760 52200.00000 0 -12486240.073 7041271.997 21124667.939 10 0 59760 53100.00000 0 -11811555.824 4461528.050 22188804.726 10 0 59760 54000.00000 0 -11307204.161 1736950.648 22823116.581 10 0 59760 54900.00000 0 -10995570.830 -1067472.495 23015329.382 10 0 59760 55800.00000 0 -10887354.656 -3883376.013 22761705.742 10 0 59760 56700.00000 0 -10981132.887 -6641603.490 22067117.687 10 0 59760 57600.00000 0 -11263450.772 -9274829.291 20944956.521 10 0 59760 58500.00000 0 -11709431.786 -11720108.561 19416881.253 10 0 59760 59400.00000 0 -12283883.454 -13921251.219 17512409.650 10 0 59760 60300.00000 0 -12942853.185 -15830922.699 15268358.749 10 0 59760 61200.00000 0 -13635569.747 -17412384.921 12728144.386 10 0 59760 62100.00000 0 -14306689.700 -18640805.645 9940952.026 10 0 59760 63000.00000 0 -14898755.039 -19504081.783 6960793.637 10 0 59760 63900.00000 0 -15354758.975 -20003142.183 3845468.003 10 0 59760 64800.00000 0 -15620711.701 -20151716.965 655443.863 10 0 59760 65700.00000 0 -15648097.446 -19975582.810 -2547312.767 10 0 59760 66600.00000 0 -15396118.186 -19511315.590 -5700544.222 10 0 59760 67500.00000 0 -14833627.900 -18804602.736 -8742915.971 10 0 59760 68400.00000 0 -13940674.048 -17908186.468 -11615216.324 10 0 59760 69300.00000 0 -12709579.316 -16879524.904 -14261516.798 10 0 59760 70200.00000 0 -11145516.048 -15778270.169 -16630269.706 10 0 59760 71100.00000 0 -9266547.161 -14663670.575 -18675320.755 10 0 59760 72000.00000 0 -7103130.099 -13592007.199 -20356816.068 10 0 59760 72900.00000 0 -4697103.056 -12614173.749 -21641985.409 10 0 59760 73800.00000 0 -2100194.644 -11773502.421 -22505785.910 10 0 59760 74700.00000 0 627881.483 -11103927.940 -22931393.444 10 0 59760 75600.00000 0 3421668.157 -10628567.468 -22910532.005 10 0 59760 76500.00000 0 6212449.236 -10358776.266 -22443634.667 10 0 59760 77400.00000 0 8930873.687 -10293718.748 -21539833.054 10 0 59760 78300.00000 0 11509610.021 -10420472.563 -20216775.719 10 0 59760 79200.00000 0 13885920.588 -10714660.676 -18500279.130 10 0 59760 80100.00000 0 16004048.558 -11141583.998 -16423818.379 10 0 59760 81000.00000 0 17817318.466 -11657805.800 -14027867.845 10 0 59760 81900.00000 0 19289863.291 -12213120.046 -11359105.064 10 0 59760 82800.00000 0 20397906.765 -12752819.449 -8469493.864 10 0 59760 83700.00000 0 21130548.523 -13220166.445 -5415265.231 10 0 59760 84600.00000 0 21490020.756 -13558961.760 -2255816.362 10 0 59760 85500.00000 0 21491407.236 -13716101.265 947449.875 10 0 59761 0.00000 0 21161838.476 -13644012.547 4132321.620 10 0 59761 900.00000 0 20539198.363 -13302867.830 7236988.762 10 0 59761 1800.00000 0 19670398.841 -12662479.881 10201239.527 10 0 59761 2700.00000 0 18609295.970 -11703800.785 12967625.385 10 0 59761 3600.00000 0 17414336.327 -10419960.631 15482567.617 10 0 59761 4500.00000 0 16146033.057 -8816802.478 17697386.325 10 0 59761 5400.00000 0 14864377.644 -6912891.108 19569232.538 10 0 59761 6300.00000 0 13626295.539 -4738994.843 21061906.493 10 0 59761 7200.00000 0 12483251.540 -2337061.575 22146547.367 10 0 59761 8100.00000 0 11479104.152 241269.264 22802182.399 10 0 59761 9000.00000 0 10648297.514 2936558.106 23016125.840 10 0 59761 9900.00000 0 10014465.391 5683782.874 22784220.816 10 0 59761 10800.00000 0 9589504.616 8414792.569 22110919.917 10 0 59761 11700.00000 0 9373156.003 11060896.831 21009202.992 10 0 59761 12600.00000 0 9353109.944 13555485.810 19500333.389 10 0 59761 13500.00000 0 9505632.240 15836573.289 17613456.566 10 0 59761 14400.00000 0 9796684.279 17849158.821 15385047.776 10 0 59761 15300.00000 0 10183491.131 19547311.630 12858218.247 10 0 59761 16200.00000 0 10616492.333 20895890.136 10081892.007 10 0 59761 17100.00000 0 11041593.915 21871825.621 7109867.986 10 0 59761 18000.00000 0 11402627.247 22464916.236 3999784.648 10 0 59761 18900.00000 0 11643911.113 22678097.783 812006.483 10 0 59761 19800.00000 0 11712808.571 22527179.426 -2391546.430 10 0 59761 20700.00000 0 11562169.876 22040054.865 -5548602.920 10 0 59761 21600.00000 0 11152557.064 21255421.769 -8597755.604 10 0 59761 22500.00000 0 10454154.655 20221063.076 -11479661.868 10 0 59761 23400.00000 0 9448283.963 18991762.537 -14138206.725 10 0 59761 24300.00000 0 8128455.100 17626942.514 -16521604.049 10 0 59761 25200.00000 0 6500910.253 16188123.975 -18583413.866 10 0 59761 26100.00000 0 4584633.447 14736316.236 -20283455.070 10 0 59761 27000.00000 0 2410824.577 13329447.005 -21588595.153 10 0 59761 27900.00000 0 21858.219 12019941.454 -22473401.140 10 0 59761 28800.00000 0 -2530230.310 10852552.683 -22920638.700 10 0 59761 29700.00000 0 -5185669.249 9862535.070 -22921609.634 10 0 59761 30600.00000 0 -7879205.269 9074237.313 -22476321.143 10 0 59761 31500.00000 0 -10542595.081 8500174.076 -21593483.664 10 0 59761 32400.00000 0 -13107230.059 8140614.693 -20290337.496 10 0 59761 33300.00000 0 -15506784.499 7983705.380 -18592311.771 10 0 59761 34200.00000 0 -17679777.052 8006118.774 -16532522.733 10 0 59761 35100.00000 0 -19571938.653 8174202.150 -14151121.396 10 0 59761 36000.00000 0 -21138288.420 8445574.563 -11494503.702 10 0 59761 36900.00000 0 -22344831.246 8771104.147 -8614399.107 10 0 59761 37800.00000 0 -23169806.970 9097180.694 -5566855.930 10 0 59761 38700.00000 0 -23604439.938 9368186.280 -2411143.862 10 0 59761 39600.00000 0 -23653158.852 9529058.427 791404.253 10 0 59761 40500.00000 0 -23333279.301 9527836.625 3978588.181 10 0 59761 41400.00000 0 -22674163.912 9318083.974 7088549.874 10 0 59761 42300.00000 0 -21715896.959 8861081.327 10060972.889 10 0 59761 43200.00000 0 -20507530.527 8127701.171 12838248.353 10 0 59761 44100.00000 0 -19104976.928 7099882.241 15366585.075 10 0 59761 45000.00000 0 -17568636.490 5771642.875 17597042.758 10 0 59761 45900.00000 0 -15960860.423 4149590.458 19486469.205 10 0 59761 46800.00000 0 -14343354.732 2252905.392 20998324.433 10 0 59761 47700.00000 0 -12774633.180 112799.808 22103376.930 10 0 59761 48600.00000 0 -11307624.694 -2228527.188 22780259.807 10 0 59761 49500.00000 0 -9987533.917 -4719395.360 23015877.218 10 0 59761 50400.00000 0 -8850042.883 -7300548.988 22805653.958 10 0 59761 51300.00000 0 -7919927.612 -9907384.826 22153623.951 10 0 59761 52200.00000 0 -7210146.219 -12472411.691 21072355.965 10 0 59761 53100.00000 0 -6721435.907 -14927841.295 19582717.643 10 0 59761 54000.00000 0 -6442435.162 -17208204.479 17713481.683 10 0 59761 54900.00000 0 -6350325.921 -19252885.585 15500780.683 10 0 59761 55800.00000 0 -6411968.985 -21008470.572 12987420.002 10 0 59761 56700.00000 0 -6585485.343 -22430811.787 10222060.596 10 0 59761 57600.00000 0 -6822217.367 -23486723.517 7258286.389 10 0 59761 58500.00000 0 -7068987.637 -24155237.276 4153573.262 10 0 59761 59400.00000 0 -7270560.290 -24428363.852 968178.927 10 0 59761 60300.00000 0 -7372200.818 -24311329.489 -2236025.227 10 0 59761 61200.00000 0 -7322225.586 -23822275.497 -5396757.495 10 0 59761 62100.00000 0 -7074432.351 -22991433.205 -8452540.787 10 0 59761 63000.00000 0 -6590307.619 -21859808.371 -11343904.857 10 0 59761 63900.00000 0 -5840915.921 -20477430.017 -14014551.576 10 0 59761 64800.00000 0 -4808389.262 -18901237.299 -16412459.707 10 0 59761 65700.00000 0 -3486951.886 -17192693.431 -18490906.804 10 0 59761 66600.00000 0 -1883435.178 -15415227.388 -20209387.470 10 0 59761 67500.00000 0 -17259.125 -13631611.390 -21534409.501 10 0 59761 68400.00000 0 2080120.571 -11901384.829 -22440151.917 10 0 59761 69300.00000 0 4366277.936 -10278433.262 -22908971.762 10 0 59761 70200.00000 0 6789351.172 -8808824.330 -22931749.668 10 0 59761 71100.00000 0 9289982.761 -7528991.383 -22508067.449 10 0 59761 72000.00000 0 11803584.535 -6464340.807 -21646214.323 10 0 59761 72900.00000 0 14262833.391 -5628340.838 -20363021.820 10 0 59761 73800.00000 0 16600293.536 -5022129.204 -18683530.772 10 0 59761 74700.00000 0 18751055.657 -4634654.902 -16640497.156 10 0 59761 75600.00000 0 20655282.822 -4443346.663 -14273746.761 10 0 59761 76500.00000 0 22260556.780 -4415278.357 -11629391.631 10 0 59761 77400.00000 0 23523926.716 -4508780.573 -8758924.121 10 0 59761 78300.00000 0 24413575.241 -4675428.659 -5718206.775 10 0 59761 79200.00000 0 24910032.542 -4862321.747 -2566378.367 10 0 59761 80100.00000 0 25006888.785 -5014555.050 635301.869 10 0 59761 81000.00000 0 24710976.125 -5077779.802 3824648.690 10 0 59761 81900.00000 0 24042014.043 -5000741.757 6939760.248 10 0 59761 82800.00000 0 23031734.292 -4737690.408 9920218.500 10 0 59761 83700.00000 0 21722523.468 -4250556.903 12708257.280 10 0 59761 84600.00000 0 20165641.219 -3510808.650 15249875.592 10 0 59761 85500.00000 0 18419089.538 -2500902.550 17495875.001 10 0 59762 0.00000 0 16545222.840 -1215275.849 19402801.753 10 0 59762 900.00000 0 14608197.634 339167.804 20933777.401 10 0 59762 1800.00000 0 12671370.331 2143095.971 22059200.547 10 0 59762 2700.00000 0 10794747.468 4165310.036 22757310.780 10 0 59762 3600.00000 0 9032595.866 6363808.644 23014602.363 10 0 59762 4500.00000 0 7431309.957 8687309.491 22826081.587 10 0 59762 5400.00000 0 6027623.774 11077167.626 22195363.156 10 0 59762 6300.00000 0 4847240.748 13469612.221 21134603.837 10 0 59762 7200.00000 0 3903937.308 15798210.586 19664274.314 10 0 59762 8100.00000 0 3199176.812 17996458.725 17812772.952 10 0 59762 9000.00000 0 2722249.415 20000392.248 15615887.865 10 0 59762 9900.00000 0 2450931.827 21751110.020 13116116.477 10 0 59762 10800.00000 0 2352639.337 23197106.197 10361854.417 10 0 59762 11700.00000 0 2386021.899 24296313.604 7406468.174 10 0 59762 12600.00000 0 2502937.388 25017772.872 4307268.493 10 0 59762 13500.00000 0 2650718.950 25342856.949 1124403.651 10 0 59762 14400.00000 0 2774640.692 25265998.839 -2080306.348 10 0 59762 15300.00000 0 2820477.114 24794891.020 -5244571.950 10 0 59762 16200.00000 0 2737047.322 23950147.179 -8306848.942 10 0 59762 17100.00000 0 2478635.259 22764439.533 -11207541.880 10 0 59762 18000.00000 0 2007182.170 21281147.280 -13890171.718 10 0 59762 18900.00000 0 1294156.873 19552572.540 -16302484.104 10 0 59762 19800.00000 0 322022.950 17637798.531 -18397475.867 10 0 59762 20700.00000 0 -914760.964 15600280.043 -20134318.831 10 0 59762 21600.00000 0 -2409251.825 13505267.584 -21479162.367 10 0 59762 22500.00000 0 -4142066.140 11417173.583 -22405798.540 10 0 59762 23400.00000 0 -6081956.810 9396991.452 -22896176.567 10 0 59762 24300.00000 0 -8186899.921 7499875.861 -22940756.434 10 0 59762 25200.00000 0 -10405646.854 5772985.587 -22538694.766 10 0 59762 26100.00000 0 -12679677.280 4253679.095 -21697859.397 10 0 59762 27000.00000 0 -14945471.682 2968137.826 -20434672.536 10 0 59762 27900.00000 0 -17137008.475 1930473.975 -18773785.760 10 0 59762 28800.00000 0 -19188381.174 1142358.975 -16747593.467 10 0 59762 29700.00000 0 -21036426.041 593186.754 -14395594.602 10 0 59762 30600.00000 0 -22623250.139 260763.112 -11763615.454 10 0 59762 31500.00000 0 -23898553.878 112490.405 -8902909.250 10 0 59762 32400.00000 0 -24821650.922 106995.628 -5869150.636 10 0 59762 33300.00000 0 -25363101.144 196131.413 -2721345.273 10 0 59762 34200.00000 0 -25505888.725 327263.725 479323.476 10 0 59762 35100.00000 0 -25246096.841 445748.194 3670687.674 10 0 59762 36000.00000 0 -24593051.632 497489.228 6790804.047 10 0 59762 36900.00000 0 -23568930.555 431473.006 9779155.386 10 0 59762 37800.00000 0 -22207852.684 202166.829 12577820.684 10 0 59762 38700.00000 0 -20554490.039 -228316.610 15132591.581 10 0 59762 39600.00000 0 -18662258.877 -888381.277 17394013.861 10 0 59762 40500.00000 0 -16591166.966 -1795513.436 19318334.723 10 0 59762 41400.00000 0 -14405406.730 -2955311.104 20868338.547 10 0 59762 42300.00000 0 -12170794.243 -4361018.085 22014056.115 10 0 59762 43200.00000 0 -9952159.921 -5993582.460 22733334.855 10 0 59762 44100.00000 0 -7810798.286 -7822237.756 23012260.153 10 0 59762 45000.00000 0 -5802081.480 -9805583.519 22845420.460 10 0 59762 45900.00000 0 -3973334.214 -11893121.561 22236011.591 10 0 59762 46800.00000 0 -2362056.953 -14027185.540 21195778.311 10 0 59762 47700.00000 0 -994569.950 -16145185.141 19744794.029 10 0 59762 48600.00000 0 114866.562 -18182073.186 17911082.155 10 0 59762 49500.00000 0 964420.182 -20072934.489 15730085.380 10 0 59762 50400.00000 0 1564527.257 -21755589.752 13243991.940 10 0 59762 51300.00000 0 1937213.820 -23173106.760 10500930.580 10 0 59762 52200.00000 0 2114925.078 -24276114.401 7554048.509 10 0 59762 53100.00000 0 2138912.472 -25024822.573 4460489.233 10 0 59762 54000.00000 0 2057246.231 -25390662.888 1280289.262 10 0 59762 54900.00000 0 1922537.215 -25357480.465 -1924785.319 10 0 59762 55800.00000 0 1789464.578 -24922225.624 -5092439.802 10 0 59762 56700.00000 0 1712214.308 -24095115.145 -8161065.711 10 0 59762 57600.00000 0 1741937.910 -22899255.080 -11070945.362 10 0 59762 58500.00000 0 1924339.957 -21369739.870 -13765421.817 10 0 59762 59400.00000 0 2297498.006 -19552264.739 -16192010.619 10 0 59762 60300.00000 0 2890008.762 -17501309.053 -18303430.769 10 0 59762 61200.00000 0 3719540.500 -15277966.622 -20058533.999 10 0 59762 62100.00000 0 4791854.601 -12947513.877 -21423113.622 10 0 59762 63000.00000 0 6100339.112 -10576817.901 -22370576.711 10 0 59762 63900.00000 0 7626075.393 -8231693.133 -22882466.151 10 0 59762 64800.00000 0 9338436.306 -5974317.449 -22948822.279 10 0 59762 65700.00000 0 11196191.808 -3860815.723 -22568377.041 10 0 59762 66600.00000 0 13149076.157 -1939111.799 -21748576.923 10 0 59762 67500.00000 0 15139751.456 -247138.177 -20505434.400 10 0 59762 68400.00000 0 17106085.357 1188522.485 -18863210.958 10 0 59762 69300.00000 0 18983647.381 2353508.282 -16853938.166 10 0 59762 70200.00000 0 20708319.044 3246026.378 -14516786.454 10 0 59762 71100.00000 0 22218908.137 3876665.895 -11897294.281 10 0 59762 72000.00000 0 23459657.259 4267685.108 -9046473.276 10 0 59762 72900.00000 0 24382541.247 4451805.080 -6019807.348 10 0 59762 73800.00000 0 24949257.170 4470562.585 -2876165.917 10 0 59762 74700.00000 0 25132823.543 4372293.707 323346.840 10 0 59762 75600.00000 0 24918722.135 4209835.025 3516583.686 10 0 59762 76500.00000 0 24305535.129 4038040.848 6641563.282 10 0 59762 77400.00000 0 23305051.684 3911222.475 9637672.440 10 0 59762 78300.00000 0 21941840.345 3880618.317 12446838.288 10 0 59762 79200.00000 0 20252305.991 3992002.002 15014647.756 10 0 59762 80100.00000 0 18283271.476 4283529.359 17291393.176 10 0 59762 81000.00000 0 16090143.602 4783914.824 19233024.516 10 0 59762 81900.00000 0 13734739.945 5511013.751 20801990.938 10 0 59762 82800.00000 0 11282866.778 6470869.946 21967956.478 10 0 59762 83700.00000 0 8801748.087 7657268.438 22708377.292 10 0 59762 84600.00000 0 6357411.363 9051812.474 23008930.408 10 0 59762 85500.00000 0 4012137.454 10624522.175 22863786.554 10 0 59763 0.00000 0 1822078.873 12334930.681 22275722.425 10 0 59763 900.00000 0 -164857.303 14133634.340 21256069.957 10 0 59763 1800.00000 0 -1910772.556 15964231.432 19824504.184 10 0 59763 2700.00000 0 -3389118.104 17765573.280 18008672.033 10 0 59763 3600.00000 0 -4585556.327 19474233.119 15843668.910 10 0 59763 4500.00000 0 -5498308.441 21027091.872 13371371.718 10 0 59763 5400.00000 0 -6137974.179 22363933.630 10639639.949 10 0 59763 6300.00000 0 -6526831.204 23429942.847 7701398.998 10 0 59763 7200.00000 0 -6697643.652 24177998.666 4613622.464 10 0 59763 8100.00000 0 -6692029.887 24570669.750 1436232.353 10 0 59763 9000.00000 0 -6558458.263 24581825.026 -1769061.959 10 0 59763 9900.00000 0 -6349955.607 24197791.404 -4939963.382 10 0 59763 10800.00000 0 -6121625.650 23418008.416 -8014801.871 10 0 59763 11700.00000 0 -5928083.039 22255150.714 -10933740.069 10 0 59763 12600.00000 0 -5820912.427 20734711.856 -13639945.519 10 0 59763 13500.00000 0 -5846261.343 18894065.590 -16080705.795 10 0 59763 14400.00000 0 -6042670.106 16781043.059 -18208463.941 10 0 59763 15300.00000 0 -6439231.985 14452084.934 -19981753.194 10 0 59763 16200.00000 0 -7054162.875 11970045.522 -21366012.131 10 0 59763 17100.00000 0 -7893842.335 9401740.575 -22334263.862 10 0 59763 18000.00000 0 -8952367.723 6815341.489 -22867645.684 10 0 59763 18900.00000 0 -10211641.335 4277724.796 -22955778.713 10 0 59763 19800.00000 0 -11641987.794 1851887.711 -22596970.288 10 0 59763 20700.00000 0 -13203276.312 -405462.407 -21798245.243 10 0 59763 21600.00000 0 -14846501.048 -2446044.387 -20575205.610 10 0 59763 22500.00000 0 -16515753.297 -4231776.806 -18951721.681 10 0 59763 23400.00000 0 -18150502.558 -5736115.523 -16959460.726 10 0 59763 24300.00000 0 -19688090.440 -6944900.595 -14637262.876 10 0 59763 25200.00000 0 -21066332.300 -7856678.719 -12030376.735 10 0 59763 26100.00000 0 -22226116.895 -8482489.531 -9189570.126 10 0 59763 27000.00000 0 -23113894.499 -8845126.828 -6170133.922 10 0 59763 27900.00000 0 -23683948.668 -8977907.946 -3030798.922 10 0 59763 28800.00000 0 -23900356.105 -8923005.207 167412.307 10 0 59763 29700.00000 0 -23738552.410 -8729411.757 3362375.684 10 0 59763 30600.00000 0 -23186438.257 -8450629.297 6492074.292 10 0 59763 31500.00000 0 -22244980.083 -8142176.633 9495801.474 10 0 59763 32400.00000 0 -20928280.669 -7859025.143 12315334.962 10 0 59763 33300.00000 0 -19263117.268 -7653069.893 14896059.398 10 0 59763 34200.00000 0 -17287967.110 -7570743.147 17188015.930 10 0 59763 35100.00000 0 -15051561.323 -7650870.655 19146859.371 10 0 59763 36000.00000 0 -12611027.520 -7922860.544 20734705.460 10 0 59763 36900.00000 0 -10029698.133 -8405300.521 21920852.958 10 0 59763 37800.00000 0 -7374674.865 -9105021.916 22682367.861 10 0 59763 38700.00000 0 -4714249.276 -10016669.711 23004519.587 10 0 59763 39600.00000 0 -2115285.243 -11122796.745 22881061.540 10 0 59763 40500.00000 0 359329.799 -12394478.731 22314351.222 10 0 59763 41400.00000 0 2653060.815 -13792425.333 21315307.727 10 0 59763 42300.00000 0 4717831.297 -15268542.072 19903207.134 10 0 59763 43200.00000 0 6515773.628 -16767879.243 18105319.118 10 0 59763 44100.00000 0 8020552.112 -18230887.863 15956390.738 10 0 59763 45000.00000 0 9218204.415 -19595889.610 13497986.218 10 0 59763 45900.00000 0 10107466.928 -20801658.512 10777694.137 10 0 59763 46800.00000 0 10699570.757 -21790006.885 7848216.123 10 0 59763 47700.00000 0 11017516.946 -22508267.298 4766353.624 10 0 59763 48600.00000 0 11094861.354 -22911566.057 1591911.647 10 0 59763 49500.00000 0 10974060.315 -22964791.915 -1613459.812 10 0 59763 50400.00000 0 10704446.819 -22644175.990 -4787464.105 10 0 59763 51300.00000 0 10339922.927 -21938414.928 -7868372.512 10 0 59763 52200.00000 0 9936466.380 -20849288.372 -10796230.927 10 0 59763 53100.00000 0 9549557.551 -19391743.037 -13514034.264 10 0 59763 54000.00000 0 9231636.552 -17593438.281 -15968844.928 10 0 59763 54900.00000 0 9029699.167 -15493770.808 -18112832.643 10 0 59763 55800.00000 0 8983134.548 -13142418.391 -19904214.543 10 0 59763 56700.00000 0 9121897.311 -10597462.815 -21308076.528 10 0 59763 57600.00000 0 9465092.481 -7923170.094 -22297059.415 10 0 59763 58500.00000 0 10020034.110 -5187520.562 -22851896.120 10 0 59763 59400.00000 0 10781818.185 -2459591.911 -22961789.271 10 0 59763 60300.00000 0 11733428.570 193095.709 -22624621.857 10 0 59763 61200.00000 0 12846371.953 2707161.743 -21846996.857 10 0 59763 62100.00000 0 14081815.334 5025767.000 -20644105.241 10 0 59763 63000.00000 0 15392178.186 7100735.405 -19039425.089 10 0 59763 63900.00000 0 16723112.067 8894307.815 -17064257.984 10 0 59763 64800.00000 0 18015784.022 10380455.726 -14757112.016 10 0 59763 65700.00000 0 19209367.220 11545701.315 -12162943.844 10 0 59763 66600.00000 0 20243633.415 12389411.112 -9332275.084 10 0 59763 67500.00000 0 21061537.599 12923552.971 -6320200.855 10 0 59763 68400.00000 0 21611685.582 13171928.646 -3185310.401 10 0 59763 69300.00000 0 21850580.323 13168916.364 11458.419 10 0 59763 70200.00000 0 21744552.324 12957778.452 3208007.840 10 0 59763 71100.00000 0 21271292.948 12588607.189 6342288.471 10 0 59763 72000.00000 0 20420926.430 12115997.044 9353503.170 10 0 59763 72900.00000 0 19196575.918 11596542.628 12183283.046 10 0 59763 73800.00000 0 17614400.146 11086268.586 14776812.964 10 0 59763 74700.00000 0 15703099.568 10638099.984 17083885.109 10 0 59763 75600.00000 0 13502912.764 10299479.644 19059861.054 10 0 59763 76500.00000 0 11064144.866 10110232.197 20666524.723 10 0 59763 77400.00000 0 8445288.987 10100764.062 21872810.875 10 0 59763 78300.00000 0 5710817.990 10290674.264 22655396.294 10 0 59763 79200.00000 0 2928737.200 10687833.844 22999143.362 10 0 59763 80100.00000 0 167998.241 11287972.163 22897388.335 10 0 59763 81000.00000 0 -2504120.395 12074787.484 22352069.352 10 0 59763 81900.00000 0 -5024559.264 13020577.664 21373691.858 10 0 59763 82800.00000 0 -7336846.401 14087365.357 19981131.866 10 0 59763 83700.00000 0 -9393191.620 15228471.739 18201280.217 10 0 59763 84600.00000 0 -11156221.023 16390474.143 16068533.667 10 0 59763 85500.00000 0 -12600280.499 17515466.848 13624141.492 99